When you browse on this site, cookies collect data to enhance your experience and personalize the content and advertising you see.
Visit our Privacy Policy to learn more. By continuing to use the site, you agree to this use of cookies and data.
  • In France
  • List of Countries
  • For 7 days
  • Water Temperature
  • Satellite Maps
  • Weather Map
  • Weather Widgets
  • user-avatar
    Login

    Hourly Weather Bushehr

    Today, 23 May, Thursday

    Time Temperature Precipitation Wind Pressure Humidity
    00:00 +32°C° 0 mm 2 mps 754 mmHg 42%
    01:00 +32°C° 0 mm 2 mps 754 mmHg 43%
    02:00 +32°C° 0 mm 1 mps 754 mmHg 44%
    03:00 +32°C° 0 mm 1 mps 754 mmHg 41%
    04:00 +32°C° 0 mm 1 mps 754 mmHg 41%
    05:00 +32°C° 0 mm 2 mps 754 mmHg 42%
    06:00 +33°C° 0 mm 3 mps 754 mmHg 42%
    07:00 +34°C° 0 mm 3 mps 754 mmHg 39%
    08:00 +35°C° 0 mm 3 mps 754 mmHg 36%
    09:00 +36°C° 0 mm 3 mps 755 mmHg 33%
    10:00 +37°C° 0 mm 4 mps 754 mmHg 31%
    11:00 +39°C° 0 mm 5 mps 754 mmHg 28%
    12:00 +39°C° 0 mm 5 mps 754 mmHg 26%
    13:00 +39°C° 0 mm 5 mps 754 mmHg 25%
    14:00 +39°C° 0 mm 5 mps 753 mmHg 25%
    15:00 +39°C° 0 mm 5 mps 753 mmHg 25%
    16:00 +38°C° 0 mm 4 mps 753 mmHg 27%
    17:00 +37°C° 0 mm 4 mps 753 mmHg 29%
    18:00 +36°C° 0 mm 3 mps 753 mmHg 32%
    19:00 +36°C° 0 mm 2 mps 753 mmHg 35%
    20:00 +34°C° 0 mm 1 mps 753 mmHg 37%
    21:00 +32°C° 0 mm 0 mps 754 mmHg 40%
    22:00 +31°C° 0 mm 0 mps 754 mmHg 40%
    23:00 +31°C° 0 mm 0 mps 753 mmHg 41%

    Tomorrow, 24 May, Friday

    Time Temperature Precipitation Wind Pressure Humidity
    00:00 +30°C° 0 mm 0 mps 753 mmHg 41%
    01:00 +30°C° 0 mm 0 mps 753 mmHg 41%
    02:00 +30°C° 0 mm 0 mps 753 mmHg 40%
    03:00 +29°C° 0 mm 0 mps 753 mmHg 40%
    04:00 +32°C° 0 mm 1 mps 753 mmHg 38%
    05:00 +32°C° 0 mm 1 mps 754 mmHg 36%
    06:00 +33°C° 0 mm 1 mps 754 mmHg 34%
    07:00 +34°C° 0 mm 1 mps 754 mmHg 31%
    08:00 +33°C° 0 mm 0 mps 754 mmHg 29%
    09:00 +35°C° 0 mm 0 mps 754 mmHg 26%
    10:00 +39°C° 0 mm 1 mps 754 mmHg 24%
    11:00 +40°C° 0 mm 2 mps 754 mmHg 22%
    12:00 +42°C° 0 mm 3 mps 754 mmHg 20%
    13:00 +40°C° 0 mm 3 mps 754 mmHg 21%
    14:00 +41°C° 0 mm 4 mps 753 mmHg 22%
    15:00 +41°C° 0 mm 4 mps 753 mmHg 23%
    16:00 +39°C° 0 mm 3 mps 753 mmHg 25%
    17:00 +38°C° 0 mm 2 mps 753 mmHg 27%
    18:00 +36°C° 0 mm 1 mps 753 mmHg 29%
    19:00 +36°C° 0 mm 1 mps 754 mmHg 31%
    20:00 +35°C° 0 mm 1 mps 754 mmHg 32%
    21:00 +35°C° 0 mm 1 mps 754 mmHg 33%
    22:00 +35°C° 0 mm 1 mps 754 mmHg 32%
    23:00 +35°C° 0 mm 1 mps 754 mmHg 31%

    Day after tomorrow, 25 May, Saturday

    Time Temperature Precipitation Wind Pressure Humidity
    00:00 +35°C° 0 mm 2 mps 754 mmHg 30%
    01:00 +34°C° 0 mm 1 mps 754 mmHg 31%
    02:00 +34°C° 0 mm 1 mps 754 mmHg 32%
    03:00 +33°C° 0 mm 1 mps 754 mmHg 33%
    04:00 +34°C° 0 mm 1 mps 754 mmHg 32%
    05:00 +35°C° 0 mm 2 mps 755 mmHg 32%
    06:00 +35°C° 0 mm 2 mps 755 mmHg 31%
    07:00 +36°C° 0 mm 2 mps 755 mmHg 30%
    08:00 +37°C° 0 mm 2 mps 755 mmHg 30%
    09:00 +38°C° 0 mm 2 mps 755 mmHg 29%
    10:00 +38°C° 0 mm 2 mps 755 mmHg 27%
    11:00 +39°C° 0 mm 3 mps 755 mmHg 26%
    12:00 +40°C° 0 mm 3 mps 755 mmHg 24%
    13:00 +41°C° 0 mm 4 mps 754 mmHg 25%
    14:00 +41°C° 0 mm 4 mps 754 mmHg 25%
    15:00 +41°C° 0 mm 4 mps 753 mmHg 25%
    16:00 +39°C° 0 mm 3 mps 753 mmHg 26%
    17:00 +38°C° 0 mm 2 mps 753 mmHg 27%
    18:00 +38°C° 0 mm 2 mps 753 mmHg 28%
    19:00 +36°C° 0 mm 1 mps 754 mmHg 30%
    20:00 +36°C° 0 mm 1 mps 754 mmHg 31%
    21:00 +35°C° 0 mm 1 mps 755 mmHg 32%
    22:00 +35°C° 0 mm 1 mps 755 mmHg 31%
    23:00 +35°C° 0 mm 1 mps 754 mmHg 31%

    26 May, Sunday

    Time Temperature Precipitation Wind Pressure Humidity
    00:00 +35°C° 0 mm 1 mps 754 mmHg 30%
    01:00 +34°C° 0 mm 1 mps 754 mmHg 30%
    02:00 +34°C° 0 mm 1 mps 753 mmHg 30%
    03:00 +34°C° 0 mm 1 mps 753 mmHg 30%
    04:00 +34°C° 0 mm 1 mps 753 mmHg 30%
    05:00 +35°C° 0 mm 2 mps 753 mmHg 31%
    06:00 +36°C° 0 mm 2 mps 753 mmHg 31%
    07:00 +37°C° 0 mm 2 mps 754 mmHg 30%
    08:00 +38°C° 0 mm 2 mps 754 mmHg 28%
    09:00 +39°C° 0 mm 2 mps 754 mmHg 26%
    10:00 +40°C° 0 mm 3 mps 754 mmHg 25%
    11:00 +42°C° 0 mm 4 mps 753 mmHg 24%
    12:00 +43°C° 0 mm 5 mps 753 mmHg 22%
    13:00 +43°C° 0 mm 5 mps 753 mmHg 23%
    14:00 +44°C° 0 mm 6 mps 752 mmHg 23%
    15:00 +44°C° 0 mm 6 mps 752 mmHg 23%
    16:00 +42°C° 0 mm 5 mps 752 mmHg 24%
    17:00 +41°C° 0 mm 4 mps 752 mmHg 26%
    18:00 +40°C° 0 mm 4 mps 752 mmHg 27%
    19:00 +38°C° 0 mm 3 mps 752 mmHg 29%
    20:00 +37°C° 0 mm 1 mps 753 mmHg 31%
    21:00 +34°C° 0 mm 0 mps 753 mmHg 33%
    22:00 +34°C° 0 mm 0 mps 753 mmHg 33%
    23:00 +33°C° 0 mm 0 mps 753 mmHg 33%

    27 May, Monday

    Time Temperature Precipitation Wind Pressure Humidity
    00:00 +33°C° 0 mm 0 mps 753 mmHg 33%
    01:00 +32°C° 0 mm 0 mps 752 mmHg 34%
    02:00 +32°C° 0 mm 0 mps 752 mmHg 34%
    03:00 +32°C° 0 mm 0 mps 752 mmHg 35%
    04:00 +34°C° 0 mm 1 mps 753 mmHg 34%
    05:00 +34°C° 0 mm 1 mps 753 mmHg 33%
    06:00 +35°C° 0 mm 1 mps 753 mmHg 32%
    07:00 +36°C° 0 mm 1 mps 753 mmHg 30%
    08:00 +37°C° 0 mm 1 mps 753 mmHg 28%
    09:00 +39°C° 0 mm 1 mps 754 mmHg 26%
    10:00 +40°C° 0 mm 2 mps 753 mmHg 24%
    11:00 +42°C° 0 mm 3 mps 753 mmHg 22%
    12:00 +43°C° 0 mm 4 mps 753 mmHg 20%
    13:00 +43°C° 0 mm 4 mps 752 mmHg 20%
    14:00 +43°C° 0 mm 4 mps 752 mmHg 21%
    15:00 +43°C° 0 mm 4 mps 751 mmHg 21%
    16:00 +42°C° 0 mm 4 mps 751 mmHg 23%
    17:00 +40°C° 0 mm 3 mps 751 mmHg 24%
    18:00 +40°C° 0 mm 3 mps 751 mmHg 26%
    19:00 +39°C° 0 mm 2 mps 751 mmHg 27%
    20:00 +37°C° 0 mm 1 mps 752 mmHg 29%
    21:00 +36°C° 0 mm 1 mps 752 mmHg 30%
    22:00 +36°C° 0 mm 1 mps 752 mmHg 31%
    23:00 +34°C° 0 mm 0 mps 752 mmHg 31%

    28 May, Tuesday

    Time Temperature Precipitation Wind Pressure Humidity
    00:00 +33°C° 0 mm 0 mps 751 mmHg 31%
    01:00 +35°C° 0 mm 1 mps 751 mmHg 31%
    02:00 +35°C° 0 mm 1 mps 751 mmHg 31%
    03:00 +35°C° 0 mm 2 mps 751 mmHg 31%
    04:00 +35°C° 0 mm 1 mps 752 mmHg 31%
    05:00 +35°C° 0 mm 1 mps 752 mmHg 32%
    06:00 +33°C° 0 mm 0 mps 752 mmHg 32%
    07:00 +34°C° 0 mm 0 mps 752 mmHg 30%
    08:00 +37°C° 0 mm 1 mps 752 mmHg 27%
    09:00 +40°C° 0 mm 1 mps 752 mmHg 25%
    10:00 +41°C° 0 mm 1 mps 752 mmHg 23%
    11:00 +42°C° 0 mm 2 mps 752 mmHg 21%
    12:00 +43°C° 0 mm 3 mps 751 mmHg 19%
    13:00 +43°C° 0 mm 4 mps 751 mmHg 20%
    14:00 +43°C° 0 mm 4 mps 751 mmHg 20%
    15:00 +43°C° 0 mm 4 mps 750 mmHg 21%
    16:00 +42°C° 0 mm 3 mps 750 mmHg 23%
    17:00 +40°C° 0 mm 3 mps 750 mmHg 26%
    18:00 +38°C° 0 mm 2 mps 750 mmHg 29%
    19:00 +37°C° 0 mm 1 mps 751 mmHg 30%
    20:00 +36°C° 0 mm 1 mps 751 mmHg 31%
    21:00 +36°C° 0 mm 1 mps 751 mmHg 32%
    22:00 +36°C° 0 mm 1 mps 751 mmHg 32%
    23:00 +35°C° 0 mm 1 mps 751 mmHg 32%
    Show more